ROMMA est une association bénévole à but non lucratif. Votre soutien est indispensable : ADHERER à ROMMA ou FAIRE un DON

Chambon - (38, Isère)

Oisans (2460 m)   Longitude: 06° 10' 42" E   Latitude: 45° 01' 32" N Station partenaire n°803
 

Détail journalier du     <<     >>

Température Humidité Vent Dir Rafale Dir. rafale Neige 1 Neige 2
Heure (°C) (%) (km/h) (km/h) (cm) (cm)
01:00 -3.7734S9S170203
02:00 -3.9664SSE10SSO171203
03:00 -3.9713S9S171203
04:00 -3.9595SSO8SSO171202
05:00 -4.0477SSO13SO170202
06:00 -4.4487SSO13SSO170202
07:00 -4.3478SSO12SSO170202
08:00 -4.4457SO9SO170202
09:00 -2.2427SO12SO170202
10:00 -1.6454SO12SO170202
11:00 1.6342SO11ONO170202
12:00 -0.8448SO17SO170202
13:00 -0.2478SO16SO170202
14:00 1.3435SO13SO170202
15:00 1.3456SO13SO170202
16:00 1.4459SO16SO170202
17:00 1.7468SO16SO170202
18:00 0.5489SO18OSO170202
19:00 -0.2515SSO13SSO170202
20:00 -2.5614NE11NE170202
21:00 -2.8626N14N170202
22:00 -3.0625N13N170202
23:00 -3.5634N9N170202
minuit -4.0743SO6OSO170202

Graphique du 29-03-2019

 

Serveur OMMA